Weather History for Savanna, IL

Change the Weather History Date:

Tuesday, May 21, 2013

  Actual Average (KCWI) Record (KCWI)
Temperature  
Mean Temperature 69 °F -  
Max Temperature 78 °F 75 °F 90 °F (1972)
Min Temperature 60 °F 51 °F 32 °F (2002)
Cooling Degree Days 4    
Growing Degree Days 19 (Base 50)    
Moisture  
Dew Point 58 °F    
Average Humidity 67    
Maximum Humidity 93    
Minimum Humidity 44    
Precipitation  
Precipitation 0.00 in - - ()
Sea Level Pressure  
Sea Level Pressure 29.66 in    
Wind  
Wind Speed 11 mph (SSW)    
Max Wind Speed 18 mph    
Max Gust Speed 26 mph    
Visibility 10 miles    
Events      
Averages and records for this station are not official NWS values.
T = Trace of Precipitation, MM = Missing Value Source: NWS Daily Summary

Daily Weather History Graph

Daily Weather History Graph

Search for Another Location

Airport:

Trip Planner

Search our weather history database for the weather conditions in past years. The results will help you decide how hot, cold, wet, or windy it might be!

Date:

Astronomy

May. 21, 2013 Rise Set
Actual Time 5:34 AM CDT 8:20 PM CDT
Civil Twilight 5:01 AM CDT 8:53 PM CDT
Nautical Twilight 4:20 AM CDT 9:34 PM CDT
Astronomical Twilight 3:33 AM CDT 10:21 PM CDT
Moon 4:30 PM CDT (5/21) 3:06 AM CDT (5/21)
Length of Visible Light 15h 51m
Length of Day
14h 46m
Waxing Gibbous, 84% of the Moon is Illuminated
May 21
Waxing Gibbous
May 24
Full
May 31
Last Quarter
Jun 8
New
Jun 16
First Quarter

Hourly Weather History & Observations

Time (CDT) Temp. Dew Point Humidity Pressure Visibility Wind Dir Wind Speed Gust Speed Precip Events Conditions
12:15 AM 66.6 °F 58.3 °F 75% 29.68 in 10.0 mi South 17.3 mph 25.3 mph N/A   Clear
12:35 AM 66.6 °F 58.5 °F 75% 29.67 in 10.0 mi South 11.5 mph - N/A   Mostly Cloudy
12:55 AM 67.1 °F 59.0 °F 75% 29.67 in 10.0 mi South 10.4 mph - N/A   Overcast
1:15 AM 66.4 °F 59.0 °F 77% 29.67 in 10.0 mi South 8.1 mph - N/A   Scattered Clouds
1:35 AM 68.2 °F 58.5 °F 71% 29.65 in 10.0 mi South 16.1 mph 25.3 mph N/A   Scattered Clouds
1:55 AM 67.8 °F 58.5 °F 72% 29.64 in 10.0 mi SSW 18.4 mph 26.5 mph N/A   Scattered Clouds
2:15 AM 67.1 °F 58.5 °F 74% 29.64 in 10.0 mi South 13.8 mph - N/A   Clear
2:35 AM 66.4 °F 59.0 °F 77% 29.64 in 10.0 mi South 12.7 mph 18.4 mph N/A   Clear
2:55 AM 65.5 °F 59.0 °F 80% 29.63 in 10.0 mi South 9.2 mph - N/A   Clear
3:15 AM 64.8 °F 59.0 °F 82% 29.63 in 10.0 mi South 9.2 mph - N/A   Clear
3:35 AM 64.6 °F 59.4 °F 83% 29.63 in 10.0 mi South 12.7 mph - N/A   Clear
3:55 AM 63.5 °F 59.0 °F 85% 29.64 in 10.0 mi South 8.1 mph - N/A   Clear
4:15 AM 63.0 °F 59.2 °F 87% 29.64 in 10.0 mi South 6.9 mph - N/A   Scattered Clouds
4:35 AM 62.8 °F 59.4 °F 89% 29.65 in 10.0 mi South 8.1 mph - N/A   Scattered Clouds
4:55 AM 62.6 °F 59.4 °F 89% 29.65 in 10.0 mi South 6.9 mph - N/A   Scattered Clouds
5:15 AM 61.9 °F 58.8 °F 90% 29.65 in 10.0 mi SE 3.5 mph - N/A   Scattered Clouds
5:35 AM 60.4 °F 58.3 °F 93% 29.65 in 10.0 mi SE 5.8 mph - N/A   Scattered Clouds
5:55 AM 61.2 °F 59.2 °F 93% 29.65 in 10.0 mi SSE 6.9 mph - N/A   Mostly Cloudy
6:15 AM 63.0 °F 60.4 °F 91% 29.65 in 10.0 mi South 8.1 mph - N/A   Overcast
6:35 AM 64.4 °F 61.0 °F 89% 29.66 in 10.0 mi South 13.8 mph - N/A   Overcast
6:55 AM 64.8 °F 60.8 °F 87% 29.66 in 10.0 mi South 16.1 mph 21.9 mph N/A   Overcast
7:15 AM 65.3 °F 61.0 °F 86% 29.66 in 10.0 mi South 13.8 mph - N/A   Overcast
7:35 AM 65.8 °F 61.2 °F 85% 29.66 in 10.0 mi SSW 13.8 mph - N/A   Overcast
7:55 AM 66.6 °F 61.3 °F 83% 29.66 in 10.0 mi South 11.5 mph - N/A   Overcast
8:15 AM 68.2 °F 61.3 °F 79% 29.66 in 10.0 mi SSW 11.5 mph - N/A   Mostly Cloudy
8:35 AM 69.3 °F 61.2 °F 75% 29.66 in 10.0 mi SSW 13.8 mph 17.3 mph N/A   Mostly Cloudy
8:55 AM 70.2 °F 61.2 °F 73% 29.66 in 10.0 mi SSW 12.7 mph - N/A   Mostly Cloudy
9:15 AM 71.4 °F 61.3 °F 70% 29.67 in 10.0 mi SSW 15.0 mph - N/A   Scattered Clouds
9:35 AM 72.0 °F 60.8 °F 68% 29.67 in 10.0 mi SSW 10.4 mph - N/A   Scattered Clouds
9:55 AM 72.3 °F 60.3 °F 66% 29.67 in 10.0 mi South 15.0 mph - N/A   Clear
10:15 AM 73.4 °F 59.9 °F 63% 29.66 in 10.0 mi South 13.8 mph - N/A   Clear
10:35 AM 75.0 °F 59.0 °F 57% 29.66 in 10.0 mi SSW 16.1 mph 19.6 mph N/A   Scattered Clouds
10:55 AM 73.8 °F 57.0 °F 56% 29.67 in 10.0 mi SW 15.0 mph 20.7 mph N/A   Scattered Clouds
11:15 AM 75.2 °F 58.3 °F 56% 29.67 in 10.0 mi SSW 12.7 mph 18.4 mph N/A   Scattered Clouds
11:35 AM 76.5 °F 57.6 °F 52% 29.66 in 10.0 mi SSW 13.8 mph 19.6 mph N/A   Scattered Clouds
11:55 AM 76.1 °F 57.0 °F 51% 29.67 in 10.0 mi SSW 11.5 mph 20.7 mph N/A   Mostly Cloudy
12:15 PM 75.0 °F 57.2 °F 54% 29.67 in 10.0 mi SSW 16.1 mph 21.9 mph N/A   Overcast
12:35 PM 74.7 °F 56.8 °F 54% 29.67 in 10.0 mi SW 13.8 mph 24.2 mph N/A   Mostly Cloudy
12:55 PM 76.8 °F 56.5 °F 49% 29.67 in 10.0 mi SW 13.8 mph 19.6 mph N/A   Scattered Clouds
1:15 PM 74.5 °F 55.9 °F 52% 29.67 in 10.0 mi SW 13.8 mph - N/A   Mostly Cloudy
1:35 PM 74.8 °F 55.4 °F 51% 29.68 in 10.0 mi SW 15.0 mph 23.0 mph N/A   Mostly Cloudy
1:55 PM 77.5 °F 56.5 °F 48% 29.68 in 10.0 mi SW 13.8 mph 18.4 mph N/A   Mostly Cloudy
2:15 PM 76.3 °F 55.4 °F 48% 29.68 in 10.0 mi WSW 12.7 mph - N/A   Mostly Cloudy
2:35 PM 76.3 °F 55.9 °F 49% 29.68 in 10.0 mi SW 12.7 mph - N/A   Mostly Cloudy
2:55 PM 77.4 °F 55.4 °F 47% 29.67 in 10.0 mi SW 13.8 mph - N/A   Scattered Clouds
3:15 PM 77.2 °F 55.4 °F 47% 29.67 in 10.0 mi WSW 11.5 mph 16.1 mph N/A   Scattered Clouds
3:35 PM 77.7 °F 55.2 °F 46% 29.67 in 10.0 mi SW 12.7 mph 18.4 mph N/A   Scattered Clouds
3:55 PM 78.1 °F 54.7 °F 44% 29.67 in 10.0 mi SW 16.1 mph - N/A   Scattered Clouds
4:15 PM 77.9 °F 54.9 °F 45% 29.67 in 10.0 mi SW 12.7 mph 18.4 mph N/A   Clear
4:35 PM 78.1 °F 55.2 °F 45% 29.67 in 10.0 mi SW 13.8 mph - N/A   Clear
4:55 PM 77.5 °F 54.9 °F 45% 29.67 in 10.0 mi SW 12.7 mph 20.7 mph N/A   Clear
5:15 PM 76.1 °F 54.1 °F 46% 29.67 in 10.0 mi WSW 13.8 mph 18.4 mph N/A   Clear
5:35 PM 76.1 °F 54.3 °F 47% 29.66 in 10.0 mi WSW 11.5 mph - N/A   Clear
5:55 PM 76.3 °F 54.0 °F 46% 29.66 in 10.0 mi WSW 9.2 mph - N/A   Clear
6:15 PM 76.3 °F 54.5 °F 47% 29.66 in 10.0 mi WSW 11.5 mph - N/A   Clear
6:35 PM 75.7 °F 55.8 °F 50% 29.66 in 10.0 mi WSW 6.9 mph - N/A   Scattered Clouds
6:55 PM 74.7 °F 55.2 °F 51% 29.66 in 10.0 mi WSW 5.8 mph - N/A   Scattered Clouds
7:15 PM 74.5 °F 55.4 °F 51% 29.66 in 10.0 mi WSW 6.9 mph - N/A   Mostly Cloudy
7:35 PM 73.8 °F 55.8 °F 53% 29.67 in 10.0 mi WSW 4.6 mph - N/A   Mostly Cloudy
7:55 PM 73.0 °F 56.3 °F 56% 29.67 in 10.0 mi SW 4.6 mph - N/A   Scattered Clouds
8:15 PM 72.5 °F 56.3 °F 57% 29.67 in 10.0 mi SW 3.5 mph - N/A   Mostly Cloudy
8:35 PM 71.8 °F 56.5 °F 58% 29.67 in 10.0 mi SW 3.5 mph - N/A   Scattered Clouds
8:55 PM 71.6 °F 56.3 °F 58% 29.68 in 10.0 mi Calm Calm - N/A   Clear
9:15 PM 69.4 °F 56.8 °F 64% 29.68 in 10.0 mi Calm Calm - N/A   Clear
9:35 PM 64.9 °F 56.8 °F 75% 29.68 in 10.0 mi SE 5.8 mph - N/A   Clear
9:55 PM 64.2 °F 57.2 °F 78% 29.67 in 10.0 mi SE 4.6 mph - N/A   Clear
10:15 PM 63.7 °F 57.2 °F 79% 29.67 in 10.0 mi Calm Calm - N/A   Clear
10:35 PM 63.5 °F 57.0 °F 79% 29.66 in 10.0 mi SE 3.5 mph - N/A   Clear
10:55 PM 63.5 °F 57.2 °F 80% 29.67 in 10.0 mi Calm Calm - N/A   Clear
11:15 PM 63.1 °F 56.7 °F 79% 29.66 in 10.0 mi Calm Calm - N/A   Clear
11:35 PM 62.6 °F 57.0 °F 82% 29.66 in 10.0 mi Calm Calm - N/A   Clear
11:55 PM 61.0 °F 57.9 °F 90% 29.66 in 10.0 mi Calm Calm - N/A   Clear